Content
SEND FEEDBACK

Daily
Averages
Monthly
Summary
United States of America

ULYSSES, NEBRASKA


Home > North America > United States > Nebraska
Elevation: 1520 feet     Latitude: 41 04N     Longitude: 097 12W

WEATHER
 
SELECT A DAY
Number of Records: 310,380;   Date Range: 1/14/02 - 7/7/14
 
SHARE

PRINT THIS DATA

[ ← Previous Day ]
WEATHER ALMANAC - JANUARY 23, 2013
[ Next Day → ]
[ °C ]   °F
Weather ElementAverageHighLow
Temperature19.5 °F32 °F (12:55 pm)10.4 °F (7:35 am)
Dewpoint12.3 °F21.2 °F (12:35 pm)6.8 °F (7:55 am)
Humidity74.1 %92 % (7:35 am)60 % (1:35 pm)
Barometer30.25 in30.46 in (11:55 pm)30.11 in (5:15 am)
Wind Speed10.1 mph21.9 mph (2:15 pm)
Wind Gust25.3 mph (3:35 pm)
Weather ElementAverage
Visibility10 mi
Wind DirectionNE (41.3 °)

Weather ElementTotal
Precipitation---
Heating Degree Days43.8 (Base 65)
Averaged from 67 records on January 23, 2013
WEATHER CONDITIONS BREAKOUT
WIND DIRECTION BREAKOUT
WEATHER BY HOUR - JANUARY 23, 2013
[ °C ]   °F
Local TimeTemperatureDewpointHumidityBarometerVisibilityWind DirectionWind SpeedGust SpeedPrecipitationEventsConditions
12:35 AM14.0 °F8.6 °F79 %30.18 in10.0 miCalmClear
12:55 AM14.0 °F8.6 °F79 %30.17 in10.0 miSSW (210°)8.1 mphClear
1:15 AM15.8 °F10.4 °F79 %30.16 in10.0 miCalmClear
1:35 AM14.0 °F8.6 °F79 %30.16 in10.0 miCalmClear
1:55 AM14.0 °F8.6 °F79 %30.16 in10.0 miCalmClear
2:15 AM14.0 °F8.6 °F79 %30.16 in10.0 miSW (220°)5.8 mphClear
2:35 AM15.8 °F10.4 °F79 %30.16 in10.0 miSSW (210°)8.1 mphClear
2:55 AM15.8 °F10.4 °F79 %30.14 in10.0 miCalmClear
3:15 AM15.8 °F10.4 °F79 %30.15 in10.0 miWSW (240°)6.9 mphClear
3:35 AM14.0 °F10.4 °F86 %30.15 in10.0 miWSW (240°)5.8 mphClear
3:55 AM15.8 °F10.4 °F79 %30.14 in10.0 miWSW (250°)3.5 mphClear
4:15 AM15.8 °F10.4 °F79 %30.14 in10.0 miCalmClear
4:35 AM15.8 °F10.4 °F79 %30.13 in10.0 miCalmClear
4:55 AM14.0 °F10.4 °F86 %30.12 in10.0 miCalmClear
5:15 AM14.0 °F8.6 °F79 %30.11 in10.0 miCalmClear
5:35 AM14.0 °F8.6 °F79 %30.12 in10.0 miCalmClear
5:55 AM14.0 °F8.6 °F79 %30.12 in10.0 miCalmClear
6:15 AM14.0 °F8.6 °F79 %30.13 in10.0 miCalmClear
6:35 AM12.2 °F8.6 °F85 %30.14 in10.0 miCalmClear
6:55 AM12.2 °F8.6 °F85 %30.14 in10.0 miCalmClear
7:15 AM12.2 °F8.6 °F85 %30.15 in10.0 miCalmClear
7:35 AM10.4 °F8.6 °F92 %30.15 in10.0 miCalmClear
7:55 AM10.4 °F6.8 °F85 %30.16 in10.0 miCalmClear
8:15 AM10.4 °F8.6 °F92 %30.16 in10.0 miWest (270°)3.5 mphClear
8:35 AM14.0 °F10.4 °F86 %30.17 in10.0 miCalmClear
8:55 AM17.6 °F14.0 °F86 %30.17 in10.0 miCalmClear
9:15 AM19.4 °F15.8 °F86 %30.18 in10.0 miNorth (360°)5.8 mphClear
9:35 AM21.2 °F15.8 °F80 %30.19 in10.0 miNorth (10°)10.4 mphClear
9:55 AM23.0 °F17.6 °F80 %30.20 in10.0 miNNE (20°)16.1 mphClear
10:15 AM24.8 °F17.6 °F74 %30.21 in10.0 miNNE (20°)16.1 mphClear
10:35 AM24.8 °F17.6 °F74 %30.22 in10.0 miNNE (30°)15.0 mphClear
10:55 AM26.6 °F19.4 °F74 %30.23 in10.0 miNNE (20°)12.7 mphClear
11:15 AM26.6 °F19.4 °F74 %30.24 in10.0 miNNE (20°)10.4 mphClear
11:35 AM28.4 °F19.4 °F69 %30.25 in10.0 miNorth (10°)16.1 mphClear
11:55 AM28.4 °F19.4 °F69 %30.25 in10.0 miNNE (20°)13.8 mphClear
12:15 PM28.4 °F19.4 °F69 %30.25 in10.0 miNorth (10°)9.2 mphClear
12:35 PM30.2 °F21.2 °F69 %30.25 in10.0 miNorth (10°)12.7 mphClear
12:55 PM32.0 °F21.2 °F64 %30.25 in10.0 miNNE (20°)13.8 mph19.6 mphClear
1:15 PM32.0 °F21.2 °F64 %30.25 in10.0 miNorth (10°)15.0 mphClear
1:35 PM32.0 °F19.4 °F60 %30.25 in10.0 miNorth (10°)18.4 mphClear
2:15 PM32.0 °F19.4 °F60 %30.24 in10.0 miNorth (10°)21.9 mphClear
2:35 PM32.0 °F19.4 °F60 %30.25 in10.0 miNorth (10°)20.7 mphClear
3:35 PM30.2 °F17.6 °F60 %30.26 in10.0 miNNE (20°)15.0 mph25.3 mphClear
3:55 PM28.4 °F17.6 °F64 %30.27 in10.0 miNNE (20°)18.4 mphClear
4:15 PM28.4 °F17.6 °F64 %30.30 in10.0 miNNE (20°)19.6 mphClear
4:35 PM26.6 °F15.8 °F64 %30.29 in10.0 miNNE (30°)17.3 mph23.0 mphClear
4:55 PM26.6 °F15.8 °F64 %30.31 in10.0 miNNE (20°)18.4 mphClear
5:15 PM24.8 °F15.8 °F69 %30.31 in10.0 miNNE (20°)19.6 mphClear
5:35 PM24.8 °F14.0 °F64 %30.32 in10.0 miNorth (10°)20.7 mphClear
5:55 PM23.0 °F14.0 °F68 %30.33 in10.0 miNNE (20°)17.3 mphClear
6:15 PM23.0 °F14.0 °F68 %30.34 in10.0 miNNE (20°)15.0 mphClear
6:35 PM23.0 °F14.0 °F68 %30.35 in10.0 miNNE (20°)18.4 mph23.0 mphClear
6:55 PM21.2 °F12.2 °F68 %30.36 in10.0 miNNE (30°)17.3 mph21.9 mphClear
7:15 PM19.4 °F10.4 °F68 %30.37 in10.0 miNNE (20°)19.6 mphClear
7:35 PM19.4 °F10.4 °F68 %30.38 in10.0 miNNE (20°)13.8 mphClear
7:55 PM17.6 °F8.6 °F68 %30.40 in10.0 miNNE (20°)13.8 mphClear
8:15 PM17.6 °F8.6 °F68 %30.40 in10.0 miNNE (30°)12.7 mphClear
8:35 PM15.8 °F6.8 °F68 %30.40 in10.0 miNNE (20°)19.6 mph23.0 mphClear
8:55 PM15.8 °F6.8 °F68 %30.41 in10.0 miNNE (20°)19.6 mph24.2 mphClear
9:15 PM15.8 °F6.8 °F68 %30.41 in10.0 miNNE (30°)15.0 mphClear
9:35 PM15.8 °F6.8 °F68 %30.41 in10.0 miNNE (20°)12.7 mphClear
9:55 PM14.0 °F6.8 °F73 %30.43 in10.0 miNNE (20°)16.1 mphClear
10:15 PM14.0 °F6.8 °F73 %30.43 in10.0 miNNE (20°)12.7 mphClear
10:55 PM14.0 °F6.8 °F73 %30.43 in10.0 miNNE (20°)12.7 mphClear
11:15 PM14.0 °F6.8 °F73 %30.44 in10.0 miNNE (30°)13.8 mph19.6 mphClear
11:35 PM14.0 °F6.8 °F73 %30.44 in10.0 miNNE (20°)13.8 mphClear
11:55 PM12.2 °F6.8 °F79 %30.46 in10.0 miNNE (20°)11.5 mphPartly Cloudy
Hourly data recorded from KJYR, located miles away from Ulysses, Nebraska







STORIES FROM OUR PARTNERS